Temp
10 10 10 10 10 11 10 9 9 9 9 9 9 8 8 8 8 8 8 8 8 8 8 8 8 7 7 6 6 6 6 6 6 6 6 6 6 6 6 7 7 7 7 7 7 7 7 7 7
10 10 10 10 11 12 11 9 9 8 9 9 9 8 8 8 9 8 8 8 8 8 8 8 8 8 7 7 6 6 6 6 6 6 6 6 6 6 7 7 7 7 7 7 7 7 7 7 7
10 10 9 10 11 12 11 9 9 9 9 9 8 8 8 8 8 8 8 8 8 8 8 8 8 8 8 8 7 7 7 6 6 6 6 6 7 7 7 7 7 7 7 7 7 7 7 7 7
10 10 10 11 11 10 10 9 8 9 9 9 8 8 8 8 8 8 8 8 8 8 8 8 8 8 8 8 8 7 7 7 7 7 7 7 7 7 7 7 7 7 7 7 7 7 7 7 7
10 10 10 11 10 9 9 9 8 8 8 8 8 8 8 8 8 8 8 8 8 8 8 8 8 8 7 7 7 7 7 7 7 7 7 7 7 7 7 7 7 7 7 7 7 7 7 7 7
9 10 11 11 10 10 9 9 9 8 8 9 8 7 9 8 8 8 8 8 8 7 8 8 8 8 8 7 7 7 7 7 6 6 7 7 7 7 7 7 7 7 7 7 7 7 7 7 7
9 9 11 11 10 9 8 9 9 8 8 8 8 7 9 8 8 8 8 8 8 8 7 7 7 7 8 8 8 8 7 7 7 6 6 7 7 7 7 7 7 7 7 7 7 7 7 7 7
10 10 10 10 10 9 9 9 9 8 8 8 8 7 8 8 8 8 8 8 8 8 8 8 7 7 7 7 7 8 8 8 8 7 7 7 7 7 7 7 7 7 7 7 7 7 7 7 7
10 9 10 10 10 9 10 9 9 8 8 9 8 8 8 8 8 8 8 8 8 7 7 7 7 7 8 8 7 7 7 7 7 7 7 7 7 7 7 7 7 7 7 7 7 7 7 6 6
9 9 10 9 9 8 9 9 9 8 9 9 9 9 8 8 8 8 8 8 8 8 8 8 7 7 7 7 7 8 8 7 7 7 6 7 6 5 6 7 7 7 7 7 7 7 6 6 6
9 9 9 9 9 9 9 8 8 8 8 8 9 9 9 8 8 8 8 8 8 7 7 7 8 8 7 7 7 7 7 7 7 7 6 5 6 6 6 7 7 7 7 7 7 7 6 6 6
9 9 9 9 9 9 8 9 8 8 8 9 9 9 8 8 8 8 8 8 7 7 7 8 8 8 8 7 7 7 7 7 7 7 7 5 4 4 6 6 6 6 7 7 6 6 6 6 6
8 9 9 9 8 8 8 8 8 9 9 9 9 8 8 8 8 8 8 7 7 7 7 7 7 7 7 7 7 6 6 6 6 6 6 6 5 4 4 5 5 5 5 6 6 6 6 6 6
8 8 8 8 8 8 8 8 8 9 9 8 8 8 8 8 8 8 8 8 8 7 8 7 7 7 7 7 7 7 7 7 6 5 5 5 5 5 5 5 5 5 5 4 4 5 5 5 5
8 8 8 8 8 8 8 8 9 8 9 8 8 8 7 7 7 7 7 7 7 8 8 8 7 7 7 7 7 7 7 6 6 6 5 4 4 4 4 4 3 3 3 3 2 2 2 3 3
7 7 7 7 8 8 8 8 8 9 8 8 8 7 7 7 7 7 7 7 7 7 7 7 7 7 7 7 7 6 6 5 5 5 5 5 5 5 4 4 3 2 1 1 1 1 -0 1 1
7 8 8 7 8 8 7 8 8 8 8 8 8 7 7 7 7 6 6 6 6 7 7 7 7 7 7 7 6 6 6 5 5 4 4 4 5 4 4 4 4 2 1 0 1 1 1 -0 1
8 7 7 7 6 7 7 7 7 7 7 7 7 7 7 7 6 6 6 6 6 6 7 7 7 7 7 7 6 6 6 6 5 5 4 4 4 4 4 4 4 3 2 2 2 2 1 1 1
6 6 6 7 6 6 7 6 6 6 6 6 6 7 7 7 6 6 6 6 6 6 6 6 6 6 6 6 6 6 6 5 5 5 4 4 4 4 3 2 2 1 1 1 1 1 1 1 1
6 5 6 6 5 5 6 5 6 6 5 7 6 6 7 6 6 6 6 6 6 6 6 6 6 6 5 6 5 5 5 5 4 4 4 3 3 2 2 2 1 0 0 0 -0 -0 0 0 0
6 5 5 6 4 5 5 5 6 8 6 6 7 6 7 6 6 5 5 6 6 6 5 5 5 5 5 4 4 4 4 4 3 3 2 2 2 1 1 1 0 -0 -0 -0 -0 -0 -0 0 0
5 5 5 5 3 5 3 6 7 6 6 7 7 7 7 6 6 5 5 5 5 5 5 5 4 4 4 3 3 3 3 3 2 2 1 1 1 0 -0 -0 -0 -0 -0 -1 -0 -0 -0 -0 -1
4 4 4 4 3 2 3 2 6 6 5 8 7 7 7 7 6 6 5 5 5 5 4 4 3 3 3 2 2 2 2 1 1 1 0 -0 -0 -1 -1 -1 -1 -1 -1 -1 -1 -1 -1 -1 -2
3 3 3 2 1 2 3 3 6 6 7 7 8 7 7 7 6 6 5 5 5 4 4 3 3 2 2 2 1 1 1 0 0 0 -0 -1 -1 -1 -1 -1 -1 -1 -1 -1 -2 -2 -3 -3 -3
3 2 4 3 2 3 4 3 5 6 7 7 7 7 6 6 6 6 6 5 4 4 3 3 2 2 1 1 1 0 -0 -1 -1 -1 -1 -2 -2 -2 -2 -2 -2 -2 -3 -3 -3 -4 -4 -4 -4
3 2 4 3 5 6 2 2 4 6 6 7 7 7 6 6 6 6 5 5 4 4 3 2 2 1 1 -0 -1 -1 -1 -1 -2 -2 -2 -2 -2 -2 -3 -3 -3 -4 -4 -5 -5 -5 -6 -7 -8
1 0 2 2 2 1 4 4 4 6 7 7 7 7 7 6 5 5 4 4 3 3 2 2 1 1 0 -0 -1 -1 -2 -2 -2 -3 -3 -3 -3 -3 -4 -4 -5 -5 -6 -7 -7 -8 -8 -9 -10
1 1 -0 0 2 3 6 6 6 6 6 6 6 6 6 5 5 4 4 3 3 2 2 1 1 0 -0 -1 -2 -2 -2 -3 -3 -3 -3 -4 -4 -4 -5 -6 -6 -7 -8 -8 -9 -10 -10 -10 -11
1 -0 1 2 3 4 5 7 6 5 6 6 6 5 5 4 4 4 3 2 2 1 1 1 0 -0 -1 -2 -3 -3 -3 -3 -3 -4 -4 -5 -5 -6 -6 -7 -8 -8 -9 -10 -10 -11 -11 -11 -12
0 1 1 2 1 2 4 5 5 5 5 5 5 4 4 4 3 2 2 1 1 0 -0 -0 -1 -1 -2 -3 -3 -3 -3 -4 -5 -5 -6 -6 -7 -8 -8 -9 -9 -10 -11 -11 -11 -12 -12 -13 -13
Height
3172 3174 3174 3175 3180 3178 3179 3180 3179 3180 3180 3178 3178 3179 3180 3180 3180 3185 3182 3182 3182 3182 3182 3182 3183 3184 3185 3186 3187 3188 3188 3189 3189 3189 3190 3190 3190 3190 3190 3190 3190 3189 3188 3188 3187 3187 3187 3186 3186
3173 3175 3176 3176 3179 3176 3180 3180 3180 3180 3178 3179 3179 3181 3183 3182 3181 3181 3182 3182 3182 3182 3182 3183 3184 3184 3185 3186 3187 3188 3188 3189 3189 3189 3190 3190 3190 3190 3189 3189 3190 3189 3188 3188 3188 3187 3187 3186 3186
3175 3175 3177 3178 3178 3177 3180 3180 3180 3179 3179 3180 3181 3181 3182 3182 3181 3181 3182 3182 3183 3183 3183 3183 3184 3185 3185 3186 3187 3188 3188 3189 3189 3189 3189 3189 3189 3189 3189 3189 3189 3189 3188 3188 3187 3187 3187 3187 3187
3176 3177 3178 3179 3178 3178 3180 3180 3180 3180 3180 3180 3181 3182 3182 3181 3181 3182 3182 3183 3183 3183 3183 3183 3184 3184 3185 3187 3187 3188 3188 3188 3189 3189 3188 3188 3188 3188 3188 3188 3189 3188 3188 3188 3187 3187 3186 3186 3186
3176 3177 3179 3179 3178 3178 3178 3178 3179 3181 3181 3181 3182 3182 3181 3181 3181 3182 3182 3183 3183 3183 3184 3184 3184 3184 3184 3185 3186 3186 3187 3188 3188 3189 3189 3188 3188 3188 3188 3188 3189 3189 3188 3188 3187 3187 3186 3186 3185
3177 3177 3179 3178 3179 3177 3178 3178 3179 3181 3181 3181 3183 3183 3181 3181 3181 3182 3183 3183 3183 3184 3184 3184 3184 3184 3184 3185 3185 3186 3186 3187 3187 3188 3188 3188 3188 3188 3188 3188 3188 3188 3188 3187 3187 3187 3186 3186 3185
3176 3177 3178 3178 3178 3177 3178 3178 3179 3181 3181 3181 3182 3183 3181 3181 3181 3181 3182 3183 3184 3184 3184 3184 3184 3185 3185 3185 3185 3185 3186 3187 3187 3187 3187 3186 3185 3185 3186 3186 3186 3186 3186 3186 3186 3186 3186 3185 3185
3175 3176 3176 3177 3178 3179 3176 3178 3178 3180 3180 3180 3180 3182 3179 3180 3180 3180 3180 3181 3181 3182 3182 3182 3182 3183 3183 3184 3185 3185 3186 3186 3186 3185 3186 3185 3185 3186 3185 3184 3183 3183 3183 3184 3184 3184 3184 3183 3183
3174 3176 3176 3177 3177 3178 3175 3177 3178 3178 3179 3178 3179 3179 3179 3178 3178 3179 3179 3179 3179 3180 3180 3181 3181 3182 3182 3182 3181 3181 3182 3182 3183 3183 3184 3184 3184 3183 3182 3182 3183 3183 3183 3182 3181 3180 3180 3181 3181
3173 3175 3175 3174 3175 3175 3175 3176 3176 3178 3177 3177 3177 3177 3177 3177 3177 3177 3177 3177 3178 3178 3178 3178 3178 3179 3179 3180 3181 3181 3181 3181 3181 3182 3182 3182 3182 3181 3180 3180 3180 3180 3179 3179 3180 3180 3179 3179 3178
3172 3173 3171 3171 3172 3173 3173 3174 3175 3176 3176 3176 3175 3176 3176 3176 3175 3175 3175 3175 3174 3175 3175 3175 3176 3176 3176 3177 3178 3178 3179 3179 3180 3180 3180 3180 3179 3179 3178 3178 3178 3177 3177 3177 3177 3176 3176 3176 3176
3170 3169 3170 3170 3170 3172 3172 3172 3173 3173 3173 3174 3173 3173 3173 3173 3174 3174 3173 3173 3172 3172 3172 3172 3172 3172 3172 3172 3172 3174 3175 3175 3176 3175 3176 3176 3176 3176 3174 3174 3174 3174 3173 3172 3172 3173 3173 3173 3172
3168 3167 3168 3168 3169 3169 3169 3170 3170 3170 3170 3170 3171 3170 3171 3171 3171 3171 3170 3170 3170 3170 3170 3170 3170 3170 3169 3169 3168 3168 3168 3170 3171 3171 3173 3174 3173 3172 3171 3170 3169 3168 3168 3168 3169 3168 3167 3167 3167
3166 3165 3166 3166 3166 3166 3167 3166 3165 3167 3166 3167 3166 3167 3168 3168 3168 3168 3168 3168 3167 3167 3167 3167 3167 3168 3168 3168 3168 3167 3167 3168 3168 3170 3171 3171 3170 3169 3169 3168 3167 3166 3164 3163 3163 3163 3163 3162 3162
3163 3164 3163 3163 3163 3163 3163 3162 3160 3161 3163 3162 3163 3164 3164 3165 3165 3165 3165 3165 3164 3163 3163 3163 3163 3164 3163 3162 3163 3164 3165 3165 3167 3168 3168 3167 3167 3165 3164 3163 3162 3162 3161 3160 3158 3158 3157 3156 3156
3162 3161 3162 3160 3159 3159 3161 3160 3158 3158 3158 3159 3159 3159 3160 3161 3162 3162 3161 3161 3161 3160 3160 3159 3158 3159 3159 3158 3158 3158 3159 3160 3161 3162 3163 3162 3162 3161 3159 3158 3158 3157 3157 3158 3156 3154 3154 3153 3151
3157 3158 3159 3158 3157 3156 3157 3158 3154 3155 3155 3155 3156 3155 3156 3157 3158 3157 3157 3157 3157 3157 3158 3158 3158 3158 3157 3157 3157 3157 3158 3158 3158 3158 3158 3158 3158 3157 3156 3156 3154 3154 3154 3153 3153 3151 3150 3149 3148
3155 3155 3156 3156 3154 3152 3152 3152 3149 3151 3151 3151 3151 3151 3151 3152 3152 3153 3153 3153 3153 3154 3155 3154 3154 3154 3155 3155 3156 3157 3158 3158 3159 3158 3157 3156 3155 3154 3154 3154 3153 3152 3151 3151 3150 3149 3147 3147 3146
3151 3151 3152 3154 3150 3149 3148 3147 3148 3144 3145 3146 3145 3145 3145 3146 3147 3148 3148 3148 3148 3149 3149 3150 3149 3150 3150 3150 3151 3151 3152 3153 3153 3153 3153 3154 3154 3153 3153 3152 3152 3151 3150 3150 3149 3147 3147 3145 3144
3146 3146 3146 3149 3144 3144 3143 3139 3140 3141 3135 3139 3138 3137 3138 3139 3140 3141 3142 3143 3143 3144 3144 3144 3144 3146 3148 3149 3150 3150 3149 3149 3150 3151 3150 3151 3150 3149 3149 3149 3150 3149 3148 3148 3147 3145 3143 3143 3141
3141 3141 3143 3145 3140 3138 3137 3128 3128 3129 3130 3127 3128 3130 3128 3131 3132 3134 3135 3136 3138 3139 3141 3141 3142 3142 3142 3143 3144 3145 3146 3145 3146 3147 3147 3146 3147 3147 3146 3146 3146 3145 3145 3143 3142 3141 3138 3136 3135
3136 3138 3137 3137 3138 3137 3134 3122 3121 3121 3120 3119 3119 3120 3120 3122 3124 3127 3129 3131 3133 3134 3135 3136 3137 3138 3139 3140 3140 3141 3142 3142 3142 3143 3143 3144 3143 3142 3142 3141 3141 3140 3138 3137 3135 3133 3131 3128 3125
3132 3132 3131 3132 3131 3131 3131 3128 3109 3112 3112 3111 3113 3114 3115 3115 3117 3119 3122 3125 3127 3129 3131 3132 3133 3135 3135 3136 3136 3137 3137 3137 3138 3139 3139 3139 3138 3137 3135 3135 3133 3133 3132 3130 3128 3126 3123 3120 3118
3125 3127 3128 3127 3128 3121 3119 3121 3101 3105 3104 3106 3107 3109 3110 3112 3113 3116 3118 3122 3124 3125 3127 3127 3129 3130 3131 3132 3133 3133 3133 3133 3133 3133 3133 3133 3132 3131 3129 3127 3126 3125 3123 3121 3118 3117 3115 3112 3108
3120 3123 3125 3123 3122 3108 3107 3110 3094 3100 3099 3100 3102 3104 3106 3108 3109 3111 3114 3117 3119 3121 3122 3123 3124 3125 3127 3128 3129 3129 3129 3129 3129 3127 3126 3126 3125 3123 3122 3121 3118 3116 3115 3113 3110 3107 3105 3103 3099
3110 3115 3116 3113 3107 3102 3103 3094 3087 3090 3091 3095 3096 3098 3101 3103 3104 3107 3109 3112 3115 3116 3118 3119 3120 3121 3122 3123 3124 3124 3124 3123 3123 3122 3120 3118 3117 3116 3114 3112 3110 3108 3106 3102 3100 3097 3095 3093 3090
3102 3105 3112 3109 3106 3104 3092 3086 3083 3083 3085 3089 3092 3093 3096 3099 3101 3103 3106 3108 3110 3112 3113 3114 3115 3115 3115 3117 3117 3117 3118 3118 3116 3115 3113 3111 3108 3106 3105 3102 3100 3097 3095 3092 3089 3087 3084 3082 3081
3094 3098 3103 3105 3101 3094 3079 3078 3074 3074 3078 3082 3086 3089 3091 3094 3096 3099 3101 3104 3106 3107 3108 3110 3111 3110 3110 3110 3110 3109 3109 3109 3109 3106 3104 3103 3101 3098 3095 3093 3090 3088 3085 3083 3080 3077 3075 3071 3071
3086 3089 3091 3092 3089 3082 3074 3066 3065 3068 3072 3075 3080 3084 3086 3089 3091 3093 3096 3098 3100 3101 3101 3103 3103 3102 3101 3102 3103 3102 3101 3102 3099 3098 3095 3094 3091 3088 3086 3084 3081 3079 3076 3074 3070 3069 3066 3063 3060
3076 3078 3082 3081 3080 3078 3074 3054 3063 3065 3067 3069 3073 3075 3078 3081 3083 3087 3089 3091 3092 3093 3094 3094 3095 3096 3095 3093 3094 3094 3093 3092 3091 3090 3087 3085 3082 3080 3077 3075 3073 3070 3068 3066 3063 3060 3057 3054 3052
Wind_Speed
10 10 7 5 2 5 6 4 5 4 4 9 8 10 10 7 5 6 5 5 6 6 7 7 7 7 7 7 7 7 6 4 2 1 2 4 5 6 7 9 10 9 8 7 8 8 8 6 5
12 10 6 5 3 8 7 6 5 5 7 8 8 12 7 10 10 10 8 6 6 5 6 6 7 7 6 6 6 7 6 4 3 3 4 6 7 8 8 9 8 7 8 7 6 6 7 7 7
12 8 4 1 3 5 6 7 6 7 6 7 5 8 6 6 5 7 6 5 5 5 4 4 5 6 5 5 4 3 3 4 4 5 6 6 6 6 7 7 7 6 6 7 7 6 6 7 7
9 6 2 1 4 4 5 7 7 7 5 5 7 1 1 3 3 3 4 4 3 3 3 4 5 5 5 4 4 4 4 4 4 5 6 7 8 7 7 7 5 6 6 6 7 8 8 7 7
8 4 2 4 4 5 9 9 9 5 4 4 4 2 4 3 4 4 2 2 1 1 1 3 4 6 7 7 7 6 6 6 7 7 8 9 9 9 9 10 9 9 9 8 7 8 8 9 9
7 5 4 6 6 8 8 10 8 6 6 4 1 2 5 5 5 4 3 1 2 2 2 3 4 5 6 7 8 8 8 8 8 8 9 10 11 11 11 11 11 10 11 12 11 11 11 11 10
8 6 6 6 9 9 9 9 6 6 4 5 2 1 5 4 4 4 5 5 5 5 5 4 4 5 6 7 8 8 9 10 10 11 10 11 11 12 11 13 13 13 13 14 14 13 13 13 12
7 7 8 8 11 9 13 11 10 8 9 6 5 2 6 6 6 7 8 9 8 8 7 7 8 8 7 8 9 10 10 11 11 12 12 13 15 16 15 15 15 15 15 15 15 15 15 15 14
6 5 8 8 10 10 12 12 12 9 10 9 7 7 8 8 8 9 9 10 9 9 9 9 10 11 11 12 12 13 14 14 14 14 14 15 16 17 18 17 17 18 19 18 17 18 18 18 17
7 6 8 11 10 9 13 13 13 10 10 12 9 8 8 8 7 7 8 9 9 9 9 10 12 13 14 15 16 16 16 17 18 17 16 17 16 15 17 19 18 20 21 21 21 22 22 21 20
10 7 14 13 14 14 15 14 13 11 11 12 13 9 8 8 8 7 7 8 9 10 10 11 11 12 13 14 15 17 18 18 18 20 19 18 21 20 22 23 23 23 23 24 23 24 24 24 24
10 13 12 13 12 13 14 17 14 14 16 14 13 12 11 10 9 8 9 10 11 11 11 12 14 14 14 16 16 19 20 20 20 22 23 19 17 16 22 25 27 27 27 27 26 26 26 25 27
12 13 12 12 11 12 14 15 18 18 17 16 15 15 13 11 10 10 11 12 13 14 15 15 15 15 16 18 18 19 22 21 21 21 21 22 22 19 21 26 26 26 29 29 28 29 28 28 28
11 12 14 14 15 16 16 18 21 19 17 18 19 17 14 14 13 12 13 14 15 16 15 14 14 15 16 18 20 20 21 23 23 21 21 22 24 26 27 26 28 28 30 29 28 29 30 30 30
15 15 16 18 18 18 16 21 22 22 20 21 18 17 17 16 15 14 14 15 15 14 13 13 14 15 16 17 18 19 19 20 22 22 21 23 23 24 25 25 25 24 25 27 28 28 26 29 29
14 15 12 14 17 19 15 14 16 13 17 18 18 19 19 18 18 17 17 16 16 15 15 15 15 14 13 13 12 13 15 17 18 19 20 22 23 24 25 24 24 22 20 19 26 28 22 28 29
16 14 11 10 13 17 18 10 18 15 17 18 21 22 21 21 21 21 19 18 17 17 16 15 14 14 14 13 12 10 11 12 14 16 18 19 21 21 20 20 20 20 19 22 19 26 24 27 24
13 15 13 14 13 15 19 21 24 19 18 20 22 24 25 25 24 23 22 20 20 17 15 14 13 13 14 13 12 13 14 15 16 18 18 17 16 14 13 13 12 12 14 16 16 14 10 11 12
18 15 17 14 20 20 22 24 20 25 25 27 28 30 30 29 27 25 23 21 19 16 15 13 12 12 12 12 12 13 14 15 16 17 15 14 15 13 10 8 8 8 9 10 12 13 15 17 18
22 21 23 18 24 24 25 29 30 28 35 31 33 36 34 31 30 26 22 20 19 18 17 15 15 14 12 11 12 13 14 15 16 14 15 15 13 13 14 13 11 11 13 14 17 20 24 27 28
26 23 22 19 21 24 27 35 36 32 35 41 37 37 36 34 32 28 24 22 21 18 17 15 15 15 13 12 12 14 15 16 16 15 15 16 15 15 15 15 16 18 21 24 28 31 33 35 37
22 21 24 25 17 19 13 15 18 15 25 27 27 30 30 32 31 28 25 22 20 18 17 16 17 16 13 11 12 15 17 18 18 18 17 17 17 18 19 21 24 27 29 34 37 38 39 40 40
22 23 25 24 21 20 24 16 23 21 31 31 29 26 24 22 22 22 23 22 20 19 17 16 17 16 15 13 13 16 17 18 20 21 20 21 22 24 26 29 31 34 38 40 42 43 43 43 43
26 23 22 21 13 13 26 26 18 22 21 21 23 24 22 19 16 17 18 19 19 18 17 17 17 17 16 16 17 19 20 22 23 24 25 27 28 30 31 34 36 39 41 42 42 42 43 43 44
25 15 6 6 7 8 12 20 27 14 21 21 23 23 21 19 17 17 17 18 18 17 17 17 18 19 20 20 22 23 24 24 25 27 29 30 32 34 37 39 39 40 41 41 41 40 41 41 42
23 25 11 6 6 4 11 12 13 22 31 23 19 22 21 21 20 19 19 18 18 18 18 19 20 22 23 24 25 26 27 28 29 30 32 34 36 39 41 41 41 40 40 40 40 40 39 39 38
15 27 26 17 17 5 12 15 18 18 22 30 26 25 21 20 19 19 18 18 18 18 20 22 24 24 26 29 29 30 29 30 32 34 36 38 40 41 40 40 41 40 41 40 40 39 39 38 37
26 15 14 15 5 8 13 21 21 18 29 31 30 29 24 23 22 22 21 21 20 22 24 26 27 30 31 32 32 31 32 32 34 38 38 39 39 39 40 41 41 41 40 40 40 40 39 38 40
33 26 19 17 20 5 6 14 17 25 19 29 31 29 27 25 24 23 24 24 26 28 28 29 31 33 33 33 33 32 33 36 39 40 39 39 38 38 39 41 41 41 41 41 40 39 40 41 40
30 27 34 20 9 19 19 30 16 12 23 26 32 32 32 29 26 27 26 27 26 26 27 28 32 34 34 34 34 35 38 40 39 38 37 38 38 38 39 41 42 41 41 40 40 41 40 39 38
Wind_Direction
164 155 137 87 66 115 112 108 109 103 79 101 98 98 81 107 119 132 107 90 91 106 112 112 113 140 157 168 169 173 181 179 194 269 324 327 330 330 329 332 338 348 344 348 345 339 333 328 325
155 152 137 100 138 146 116 122 106 110 137 113 98 76 87 90 102 101 97 101 102 105 116 124 126 136 149 169 186 192 193 207 235 270 291 306 314 319 325 332 344 359 347 351 348 345 340 332 331
153 151 111 167 161 116 143 144 144 139 128 135 93 121 121 127 134 121 106 96 100 112 124 134 142 148 156 165 178 207 245 264 276 288 294 297 301 309 317 329 347 349 347 349 349 346 347 338 331
156 145 103 252 177 147 139 153 153 135 115 127 132 91 145 183 198 164 134 116 107 117 141 159 171 176 177 182 200 218 234 251 267 282 293 300 304 308 312 315 331 317 333 335 335 338 338 335 330
172 143 223 168 174 170 165 165 160 160 155 138 130 253 244 244 228 209 184 175 90 81 153 200 204 202 198 200 206 217 230 251 269 278 283 288 293 293 300 308 314 311 310 313 315 316 321 324 323
180 191 213 201 191 187 175 176 162 154 167 178 76 179 283 266 253 235 220 244 283 339 312 284 253 235 233 231 231 230 233 233 245 260 270 280 289 293 294 298 300 300 300 301 303 306 308 308 310
193 212 230 214 192 191 196 191 163 177 178 211 243 185 286 271 265 247 253 283 288 301 301 283 280 287 277 263 255 253 251 251 249 252 256 263 265 272 279 284 288 290 289 287 289 293 295 297 298
214 212 231 208 202 202 219 206 209 189 228 251 265 228 270 278 273 267 268 271 268 272 271 263 259 256 255 265 275 271 266 265 265 265 267 270 278 283 280 275 274 274 276 280 285 287 286 287 287
214 214 228 226 206 216 224 212 219 223 246 258 264 270 265 271 267 262 260 263 266 270 267 265 263 265 266 261 251 250 255 258 261 265 268 269 271 275 276 276 281 283 283 280 277 275 277 281 282
219 217 226 213 205 213 225 217 227 236 257 273 275 281 278 279 275 269 267 266 265 267 270 272 267 264 266 267 265 264 261 262 266 269 272 273 268 266 270 282 276 278 279 280 281 281 280 277 273
240 229 240 234 226 218 224 226 233 243 264 263 285 285 270 257 256 260 273 280 278 270 265 262 262 264 266 267 271 271 268 263 262 265 262 263 270 277 276 279 281 278 279 279 278 276 276 278 277
249 241 235 233 228 223 227 234 239 248 250 272 273 272 254 253 262 278 282 282 282 280 280 279 274 267 259 255 256 263 263 262 261 261 263 263 268 273 282 282 281 281 278 277 277 277 278 276 276
245 246 237 234 232 232 241 245 249 255 260 261 262 256 249 253 261 274 281 282 282 282 280 276 272 269 267 263 257 252 254 256 259 263 267 271 273 275 281 283 283 282 280 280 279 279 278 275 274
249 244 239 242 250 254 256 256 256 260 260 257 257 245 241 246 255 265 274 277 279 280 281 279 274 274 275 276 280 281 279 274 264 265 266 269 272 273 275 277 280 281 284 287 286 283 280 280 280
253 254 253 256 258 260 260 257 263 259 262 257 246 237 242 249 260 271 278 275 272 270 273 276 280 283 280 274 269 267 273 278 282 282 281 281 282 282 284 284 282 276 274 279 283 287 288 285 282
262 260 255 255 262 258 254 263 266 258 246 244 240 244 249 256 268 273 276 275 272 268 269 271 275 279 278 277 270 262 258 262 267 275 278 283 288 291 290 288 284 279 273 275 281 285 291 293 294
264 253 243 260 252 260 261 245 253 256 245 240 247 252 257 261 267 274 276 271 267 267 273 277 285 289 285 277 278 278 277 275 274 273 277 283 285 286 286 287 285 277 277 280 273 288 288 282 294
259 250 252 247 276 258 261 258 266 262 245 246 250 253 258 264 267 275 278 277 271 264 275 275 274 276 278 278 278 281 287 290 292 292 290 287 290 293 297 299 297 290 290 282 276 291 307 306 309
261 251 261 261 265 267 265 264 252 267 250 248 253 257 261 266 268 272 270 275 261 259 267 271 272 269 260 259 263 271 278 278 278 277 278 288 293 296 294 293 294 291 292 296 293 297 305 308 308
251 256 263 271 263 274 273 270 267 249 264 258 257 261 265 268 265 263 260 261 249 250 254 252 254 250 253 265 277 276 273 272 272 268 271 279 274 274 278 281 284 292 295 299 302 303 304 303 303
256 253 263 267 274 279 287 280 278 274 256 258 257 260 262 259 256 254 253 246 244 252 256 252 240 233 237 246 261 267 267 264 262 259 267 269 267 269 270 274 279 288 295 298 302 302 301 299 297
254 264 265 262 264 273 262 281 269 266 262 260 252 249 255 252 250 249 245 240 244 251 254 244 235 237 240 255 260 260 260 263 261 260 259 259 261 265 271 273 280 287 293 299 301 300 296 293 291
255 254 260 264 260 270 259 269 285 251 249 259 250 246 241 235 231 226 227 234 242 249 251 244 238 242 247 252 266 267 261 254 256 259 257 260 265 270 273 279 284 291 296 297 294 291 290 290 291
254 256 263 270 258 254 248 229 269 240 254 249 234 233 238 233 226 224 233 243 251 251 247 247 248 249 256 263 265 263 257 249 255 258 260 264 271 279 287 293 295 293 290 288 288 291 292 292 291
246 228 245 243 215 250 224 215 233 226 246 244 235 234 234 231 228 236 244 252 254 255 253 251 254 257 261 264 262 255 251 252 256 260 264 272 281 289 294 294 293 292 291 292 293 292 289 288 287
247 214 205 249 227 255 207 231 241 236 239 227 219 222 221 220 229 237 244 252 256 255 256 257 258 258 258 258 256 256 255 258 262 266 272 282 289 292 294 295 294 293 296 296 296 296 297 297 295
233 215 226 258 264 281 236 250 248 224 216 214 220 220 220 232 234 236 246 259 259 259 258 260 261 261 264 263 258 258 261 264 268 275 283 289 292 294 295 295 297 299 300 300 302 302 301 300 298
221 222 200 211 229 240 251 251 240 222 227 218 218 212 229 229 233 237 250 255 259 263 267 266 268 265 263 258 257 258 262 267 278 284 287 291 292 293 295 297 298 299 300 301 303 303 302 301 300
220 213 210 221 226 249 265 252 241 231 226 217 216 223 226 226 231 238 244 248 257 259 260 264 265 262 256 255 257 260 267 278 285 288 288 289 291 292 294 295 297 298 299 300 301 301 301 301 299
229 235 219 219 211 227 249 262 255 217 211 205 213 218 218 222 228 241 248 261 256 255 255 259 259 256 253 254 256 267 278 284 285 285 286 288 290 292 293 293 296 296 297 298 300 300 300 299 299